EW9213 Weather Reports


time (UTC)temp
C
wind
direction
speed
KPH
gust
KPH
rain 1hr
cm
rain 24hr
cm
rain mn
cm
humidity
%
barometer
mb
20260504034510 16 282 22.5 35.4 0.00 0.00 0.00 39 1006.3
20260504033009 17 295 19.3 38.6 0.00 0.00 0.00 38 1006.5
20260504031510 17 304 19.3 30.6 0.00 0.00 0.00 38 1006.8
20260504030005 17 252 16.1 33.8 0.00 0.00 0.00 36 1006.9
20260504024503 17 260 16.1 30.6 0.00 0.00 0.00 36 1007.3
20260504023002 17 326 16.1 29.0 0.00 0.00 0.00 36 1007.5
20260504021603 18 285 17.7 27.4 0.00 0.00 0.00 35 1007.5
20260504020114 18 265 14.5 30.6 0.00 0.00 0.00 33 1007.5
20260504014604 18 280 11.3 25.7 0.00 0.00 0.00 32 1007.8
20260504013105 19 300 11.3 19.3 0.00 0.00 0.00 31 1008.0
20260504011553 20 302 11.3 19.3 0.00 0.00 0.00 30 1008.3
20260504010051 21 296 11.3 30.6 0.00 0.00 0.00 28 1008.5
20260504004549 21 316 16.1 32.2 0.00 0.00 0.00 27 1008.9
20260504003048 21 300 14.5 32.2 0.00 0.00 0.00 27 1009.2
20260504001544 21 333 14.5 32.2 0.00 0.00 0.00 27 1009.5
20260504000046 21 304 16.1 27.4 0.00 0.00 0.00 26 1009.8
20260503234539 21 279 8.0 27.4 0.00 0.00 0.00 26 1010.2
20260503233036 21 296 9.7 25.7 0.00 0.00 0.00 24 1010.3
20260503231535 22 309 17.7 38.6 0.00 0.00 0.00 24 1010.6
20260503230033 22 307 11.3 30.6 0.00 0.00 0.00 21 1010.9
20260503224532 22 310 19.3 38.6 0.00 0.00 0.00 22 1011.0
20260503223029 22 304 14.5 32.2 0.00 0.00 0.00 23 1011.4
20260503221526 23 307 6.4 29.0 0.00 0.00 0.00 26 1011.7
20260503220023 22 330 12.9 35.4 0.00 0.00 0.00 25 1011.9
20260503214536 21 290 16.1 33.8 0.00 0.00 0.00 25 1012.2
20260503213018 21 294 22.5 40.2 0.00 0.00 0.00 25 1012.7
20260503211515 22 304 14.5 35.4 0.00 0.00 0.00 25 1013.1
20260503210012 21 296 25.7 41.8 0.00 0.00 0.00 24 1013.6
20260503204510 21 287 12.9 43.5 0.00 0.00 0.00 26 1014.0
20260503203007 21 295 22.5 35.4 0.00 0.00 0.00 25 1014.5
20260503201506 21 308 12.9 35.4 0.00 0.00 0.00 28 1014.7
20260503200003 21 308 16.1 41.8 0.00 0.00 0.00 26 1015.0
20260503194502 20 300 17.7 30.6 0.00 0.00 0.00 27 1015.4
20260503193104 20 293 19.3 35.4 0.00 0.00 0.00 27 1015.9
20260503191605 20 324 11.3 38.6 0.00 0.00 0.00 28 1016.2
20260503190053 19 293 19.3 35.4 0.00 0.00 0.00 28 1016.6
20260503184600 19 291 16.1 32.2 0.00 0.00 0.00 29 1017.1
20260503183048 19 262 14.5 30.6 0.00 0.00 0.00 29 1017.5
20260503181607 19 300 8.0 29.0 0.00 0.00 0.00 31 1017.9
20260503180056 18 306 6.4 25.7 0.00 0.00 0.00 30 1018.3
20260503174547 18 299 12.9 33.8 0.00 0.00 0.00 31 1018.6
20260503173051 18 293 4.8 27.4 0.00 0.00 0.00 34 1019.1
20260503171634 17 295 12.9 27.4 0.00 0.00 0.00 30 1019.3
20260503130113 9 266 4.8 12.9 0.00 0.00 0.00 47 1021.9
20260503081539 8 9 3.2 12.9 0.00 0.00 0.00 51 1021.9
20260503071520 10 357 6.4 19.3 0.00 0.00 0.00 50 1021.8
20260503054509 11 21 4.8 16.1 0.00 0.00 0.00 55 1021.3
20260503053100 11 328 3.2 22.5 0.00 0.00 0.00 55 1021.2
20260503051559 12 9 3.2 20.9 0.00 0.00 0.00 55 1021.1
20260503050056 12 335 4.8 16.1 0.00 0.00 0.00 55 1021.0
20260503044607 12 332 3.2 11.3 0.00 0.00 0.00 55 1020.9
20260503043057 12 297 0.0 8.0 0.00 0.00 0.00 54 1020.7
20260503041552 12 297 0.0 4.8 0.00 0.00 0.00 53 1020.5
20260503040100 13 299 0.0 6.4 0.00 0.00 0.00 52 1020.5